Avoca, PA

7:43 PM EST on December 05, 2019 (GMT -0500)
Wilkes-Barre-Scranton International

Weather History for KAVP - November, 2019

Change the Weather History Date:

Monday, November 11, 2019

  Actual Average Record
Temperature  
Mean Temperature 46 °F 43 °F  
Max Temperature 55 °F 51 °F 72 °F (2012)
Min Temperature 38 °F 35 °F 16 °F (2017)
Degree Days  
Heating Degree Days 18 22  
Month to date heating degree days 259 225  
Since 1 July heating degree days 581 828  
Cooling Degree Days 0 0  
Month to date cooling degree days 0 0  
Year to date cooling degree days 846 580  
Moisture  
Dew Point 34 °F    
Average Humidity 65    
Maximum Humidity 85    
Minimum Humidity 46    
Precipitation  
Precipitation 0.00 in 0.10 in 1.43 in (1995)
Month to date precipitation 0.41 1.12  
Year to date precipitation 45.64 33.56  
Sea Level Pressure  
Sea Level Pressure 29.96 in    
Wind  
Wind Speed 1 mph ()    
Max Wind Speed 10 mph    
Max Gust Speed 12 mph    
Visibility 9.9 miles    
Events      
T = Trace of Precipitation, MM = Missing Value Source: Averaged Metar Reports

Daily Weather History Graph

Daily Weather History Graph

Search for Another Location

Airport or City:

Astronomy

Nov. 11, 2019 Rise Set
Actual Time 6:46 AM EST 4:47 PM EST
Civil Twilight 6:16 AM EST 5:16 PM EST
Nautical Twilight 5:43 AM EST 5:49 PM EST
Astronomical Twilight 5:10 AM EST 6:22 PM EST
Moon 4:42 PM EST (11/11) 5:33 AM EST (11/11)
Length of Visible Light 10h 59m
Length of Day
10h 01m
Waxing Gibbous, 99% of the Moon is Illuminated
Nov 11
Waxing Gibbous
Nov 12
Full
Nov 19
Last Quarter
Nov 26
New
Dec 4
First Quarter

Hourly Weather History & Observations

Time (EST) Temp. Windchill Dew Point Humidity Pressure Visibility Wind Dir Wind Speed Gust Speed Precip Events Conditions
12:54 AM 42.1 °F 39.2 °F 30.9 °F 65% 30.02 in 10.0 mi East 4.6 mph - N/A   Scattered Clouds
1:54 AM 39.0 °F - 32.0 °F 76% 30.03 in 10.0 mi Calm Calm - N/A   Overcast
2:54 AM 43.0 °F - 32.0 °F 65% 30.02 in 10.0 mi Calm Calm - N/A   Overcast
3:54 AM 42.1 °F - 34.0 °F 73% 30.03 in 10.0 mi Calm Calm - N/A   Overcast
4:54 AM 41.0 °F 39.0 °F 33.1 °F 73% 30.04 in 10.0 mi NE 3.5 mph - N/A   Overcast
5:54 AM 42.1 °F - 33.1 °F 70% 30.05 in 10.0 mi Calm Calm - N/A   Overcast
6:54 AM 41.0 °F 39.0 °F 33.1 °F 73% 30.06 in 10.0 mi East 3.5 mph - N/A   Clear
7:54 AM 44.1 °F - 33.1 °F 65% 30.08 in 10.0 mi Calm Calm - N/A   Clear
8:54 AM 45.0 °F - 34.0 °F 65% 30.08 in 10.0 mi Calm Calm - N/A   Clear
9:54 AM 48.9 °F - 35.1 °F 59% 30.07 in 10.0 mi West 3.5 mph - N/A   Clear
10:54 AM 51.1 °F - 34.0 °F 52% 30.06 in 10.0 mi Calm Calm - N/A   Overcast
11:54 AM 51.1 °F - 33.1 °F 50% 30.03 in 10.0 mi Variable 3.5 mph - N/A   Overcast
12:54 PM 53.1 °F - 34.0 °F 48% 29.99 in 10.0 mi Calm Calm - N/A   Overcast
1:54 PM 54.0 °F - 34.0 °F 47% 29.98 in 10.0 mi Calm Calm - N/A   Overcast
2:54 PM 55.0 °F - 35.1 °F 47% 29.94 in 10.0 mi Calm Calm - N/A   Overcast
4:54 PM 52.0 °F - 35.1 °F 53% 29.90 in 10.0 mi Calm Calm - N/A   Clear
5:54 PM 48.9 °F - 35.1 °F 59% 29.87 in 10.0 mi Calm Calm - N/A   Clear
6:54 PM 46.0 °F - 35.1 °F 66% 29.87 in 10.0 mi Calm Calm - N/A   Clear
7:54 PM 44.1 °F 42.5 °F 35.1 °F 71% 29.87 in 10.0 mi WSW 3.5 mph - N/A   Clear
8:54 PM 41.0 °F 39.0 °F 35.1 °F 79% 29.85 in 10.0 mi SSE 3.5 mph - N/A   Clear
9:54 PM 41.0 °F - 35.1 °F 79% 29.80 in 10.0 mi Calm Calm - N/A   Clear
10:54 PM 39.9 °F 37.8 °F 35.1 °F 83% 29.77 in 9.0 mi SSW 3.5 mph - N/A   Clear
11:54 PM 39.0 °F 34.8 °F 34.0 °F 82% 29.75 in 8.0 mi SSW 5.8 mph - N/A   Mostly Cloudy